Location: Unspecified
(0.0000°N, 0.0000°E)
Time: 20:24:06
(UTC+00:00)

ARIANE 2 DEB - Pass Details

Date: 10 March 2026
Orbit: 560 x 35706 km, 7.7° (Epoch: 21 April)

Event Time Altitude Azimuth Distance (km) Brightness Sun altitude
Rises 20:24:28 0° 90° (E) 33,030 ? -33.4°
Reaches altitude 10° 22:00:16 10° 88° (E) 39,048 ? -57.2°
Maximum altitude 02:01:21 34° 82° (E) 29,120 ? -62.0°
Drops below altitude 10° 03:36:17 10° 81° (E) 15,553 ? -38.4°
Sets 03:46:37 0° 82° (E) 14,068 ? -35.8°
